[TLELIST] Archives

 

Current TLEs

January 18th 2008 PDT

HST 1 20580U 90037B 08015.88214728 +.00000392 +00000-0 +17528-4 0 00541 2 20580 028.4687 243.0833 0004143 197.1248 162.9198 15.00327567771938 ISS (ZARYA) 1 25544U 98067A 08017.45672502 .00025119 00000-0 15389-3 0 7307 2 25544 051.6380 078.8096 0005425 292.1604 191.8945 15.77134864524580 CXO 1 25867U 99040B 08016.83333333 .00000249 00000-0 10000-3 0 1579 2 25867 063.0117 084.3971 6568528 280.8527 356.2197 00.37806487 3056 ____________________________________________________________________ These 2-Line ...Continue Reading

Current TLEs

January 17th 2008 PDT

HST 1 20580U 90037B 08016.01518974 .00000395 00000-0 17746-4 0 496 2 20580 028.4687 242.2161 0004144 198.5702 161.4733 15.00327652771950 ISS (ZARYA) 1 25544U 98067A 08016.37520006 .00025462 00000-0 15630-3 0 7241 2 25544 051.6381 084.3900 0005406 286.7248 172.7346 15.77081241524414 CXO 1 25867U 99040B 08016.83333333 .00000249 00000-0 10000-3 0 1579 2 25867 063.0117 084.3971 6568528 280.8527 356.2197 00.37806487 3056 ____________________________________________________________________ These 2-Line ...Continue Reading

Current TLEs

January 16th 2008 PDT

HST 1 20580U 90037B 08014.88432846 .00000398 00000-0 17995-4 0 480 2 20580 028.4687 249.5891 0004170 186.9101 173.1427 15.00327158771785 ISS (ZARYA) 1 25544U 98067A 08015.35233512 .00025329 00000-0 15588-3 0 7177 2 25544 051.6385 089.6666 0005501 282.1160 126.2013 15.77027274524257 CXO 1 25867U 99040B 08014.20833333 .00000360 00000-0 10000-3 0 1566 2 25867 062.9914 084.4909 6565647 280.8441 358.9450 00.37808397 3047 ____________________________________________________________________ These 2-Line ...Continue Reading

Current TLEs

January 15th 2008 PDT

HST 1 20580U 90037B 08012.95521148 +.00000437 +00000-0 +21061-4 0 00607 2 20580 028.4692 262.1677 0004189 166.7721 193.2980 15.00326552771490 ISS (ZARYA) 1 25544U 98067A 08013.54313657 .00023129 00000-0 14332-3 0 7054 2 25544 051.6383 099.0016 0005560 276.7620 293.5502 15.76930700523968 CXO 1 25867U 99040B 08014.20833333 .00000360 00000-0 10000-3 0 1566 2 25867 062.9914 084.4909 6565647 280.8441 358.9450 00.37808397 3047 ____________________________________________________________________ These 2-Line ...Continue Reading

Current TLEs

January 14th 2008 PDT

HST 1 20580U 90037B 08011.95739160 +.00000447 +00000-0 +21783-4 0 00489 2 20580 028.4697 268.6741 0004219 157.2993 202.7781 15.00326151771342 ISS (ZARYA) 1 25544U 98067A 08012.57876630 .00019493 00000-0 12163-3 0 6981 2 25544 051.6425 103.9756 0005880 267.7348 224.2797 15.76898995523813 CXO 1 25867U 99040B 08011.50000000 .00000364 00000-0 10000-3 0 1556 2 25867 062.9742 084.5597 6561034 280.8427 350.3228 00.37806127 3037 ____________________________________________________________________ These 2-Line ...Continue Reading

Current TLEs

January 13th 2008 PDT

HST 1 20580U 90037B 08011.89087031 .00000452 00000-0 22207-4 0 461 2 20580 028.4699 269.1087 0004226 156.8330 203.2452 15.00326183771336 ISS (ZARYA) 1 25544U 98067A 08012.38597443 .00013978 00000-0 88588-4 0 6978 2 25544 051.6367 104.9687 0005633 270.6277 206.1958 15.76855143523784 CXO 1 25867U 99040B 08011.50000000 .00000364 00000-0 10000-3 0 1556 2 25867 062.9742 084.5597 6561034 280.8427 350.3228 00.37806127 3037 ____________________________________________________________________ These 2-Line ...Continue Reading

Current TLEs

January 12th 2008 PDT

HST 1 20580U 90037B 08010.82652910 .00000454 00000-0 22344-4 0 450 2 20580 028.4701 276.0489 0004226 146.0216 214.0644 15.00325609771174 ISS (ZARYA) 1 25544U 98067A 08011.36496507 .00028970 00000-0 16474-3 0 6897 2 25544 051.6401 110.2356 0002979 051.6198 020.8484 15.78734851523627 CXO 1 25867U 99040B 08011.50000000 .00000364 00000-0 10000-3 0 1556 2 25867 062.9742 084.5597 6561034 280.8427 350.3228 00.37806127 3037 ____________________________________________________________________ These 2-Line ...Continue Reading

Current TLEs

January 11th 2008 PDT

HST 1 20580U 90037B 08008.89740955 +.00000390 +00000-0 +17413-4 0 00585 2 20580 028.4702 288.6294 0004102 127.4243 232.6719 15.00324104770889 ISS (ZARYA) 1 25544U 98067A 08010.41050237 .00028618 00000-0 16320-3 0 6831 2 25544 051.6396 115.1731 0002608 048.9481 355.3162 15.78679215523478 CXO 1 25867U 99040B 08008.87500000 .00000315 00000-0 10000-3 0 1542 2 25867 062.9603 084.6248 6555325 280.8525 352.9991 00.37805507 3027 ____________________________________________________________________ These 2-Line ...Continue Reading

Current TLEs

January 10th 2008 PDT

HST 1 20580U 90037B 08009.09697375 .00000403 00000-0 18390-4 0 440 2 20580 028.4701 287.3275 0004129 129.0710 231.0247 15.00324293770911 ISS (ZARYA) 1 25544U 98067A 08009.40284255 .00031377 00000-0 17894-3 0 6773 2 25544 051.6404 120.3822 0002603 052.2270 021.4972 15.78626231523319 CXO 1 25867U 99040B 08008.87500000 .00000315 00000-0 10000-3 0 1542 2 25867 062.9603 084.6248 6555325 280.8525 352.9991 00.37805507 3027 ____________________________________________________________________ These 2-Line ...Continue Reading

Current TLEs

January 9th 2008 PDT

HST 1 20580U 90037B 08006.96828707 +.00000321 +00000-0 +12012-4 0 00475 2 20580 028.4701 301.2087 0003899 109.1144 250.9866 15.00322743770590 ISS (ZARYA) 1 25544U 98067A 08008.39587058 .00031796 00000-0 18178-3 0 6701 2 25544 051.6406 125.5891 0002530 047.5469 059.7464 15.78564124523154 CXO 1 25867U 99040B 08008.87500000 .00000315 00000-0 10000-3 0 1542 2 25867 062.9603 084.6248 6555325 280.8525 352.9991 00.37805507 3027 ____________________________________________________________________ These 2-Line ...Continue Reading
  • This mailing list is a public mailing list - anyone may join or leave, at any time.
  • This mailing list is announce-only.

International Space Station (ISS) / Hubble Space Telescope (HST) / Chandra X-Ray Observatory Orbital Data via EMAIL

Privacy Policy:

Private list